Regional Weather Roundup
Issued by NWS

Home | Current Version | Previous Version | Text Only | Print | Product List | Glossary On
Versions: 1 2 3 4 5 6 7 8 9 10 11 12 13 14 15 16 17 18 19 20 21 22 23 24 25 26 27
000
ASUS45 KSLC 271910
RWRUT

UTAH REGIONAL WEATHER ROUNDUP
NATIONAL WEATHER SERVICE SALT LAKE CITY UT
100 PM MDT TUE JUN 27 2017

UTZ001>011-023>025-272000-

NORTHERN UTAH

CITY           SKY/WX    TMP DP  RH WIND       PRES   REMARKS
BRIGHAM CITY   MOSUNNY   86  37  17 S15       29.93F
DUGWAY         MOSUNNY   87  27  11 NW13G20   29.95F
HILL AFB       MOSUNNY   82  43  25 W14       29.99S
LOGAN          MOSUNNY   86  44  23 SW14G20   29.93F
OGDEN          SUNNY     83  43  24 SW9       29.96S
SALT LAKE CITY MOSUNNY   85  41  21 NW14      29.94S
TOOELE VALLEY  SUNNY     84  46  26 N12G17    29.96F
WENDOVER         N/A     88  26  10 NW15      29.95F
HEBER CITY     SUNNY     84  36  17 CALM      29.99F
WEST JORDAN    SUNNY     85  55  35 NW21      29.97S

$$

UTZ011>015-024>027-272000-

CENTRAL/NORTHEAST UTAH

CITY           SKY/WX    TMP DP  RH WIND       PRES   REMARKS
PROVO AIRPORT  SUNNY     86  41  20 W6        29.95F
MOAB/CANYONLAN SUNNY     96  12   4 SW17G25   29.87F
DELTA          SUNNY     88  27  11 NW10G17   29.97F
PRICE          SUNNY     87  26  11 CALM      30.00F
VERNAL         SUNNY     87  34  15 CALM      29.94F

$$

UTZ013>016-019>022-027-272000-

SOUTHERN UTAH

CITY           SKY/WX    TMP DP  RH WIND       PRES   REMARKS
BRYCE CANYON   SUNNY     80  17   9 E13       30.19F
CEDAR CITY     SUNNY     90  17   7 SW12G17   30.04F
MILFORD        SUNNY     90  19   7 SE10      29.97F
ST GEORGE      CLEAR     95  21   7 W7        29.88F
HANKSVILLE     SUNNY     97  19   6 W13G18    29.90F HX  90
BLANDING       SUNNY     86  26  11 SW17G23   30.13F

$$

REGIONAL REPORTS     COLORADO/ARIZONA

CITY           SKY/WX    TMP DP  RH WIND       PRES   REMARKS
CRAIG, CO      SUNNY     88  21   8 W17G29    29.99S
GRAND JUNCTION SUNNY     95  17   6 W18G29    29.91F
RIFLE, CO      SUNNY     91  18   7 W21G35    29.97F
MONTROSE, CO   SUNNY     89  27  10 SW14      30.03F
CORTEZ, CO     SUNNY     89  25  10 W14G28    30.09F
COLORADO CITY    N/A     93  21   7 SW13      30.05S
PAGE, AZ       SUNNY     95  17   6 NW6       29.92F
GRAND CANYON   SUNNY     85  13   7 SW24G31   30.17F
KINGMAN, AZ    SUNNY     95  24   8 SW29G35   29.96S
FLAGSTAFF, AZ  SUNNY     82  20  10 SW18G31   30.23S

$$

REGIONAL REPORTS    NEVADA/IDAHO/WYOMING

CITY           SKY/WX    TMP DP  RH WIND       PRES   REMARKS
LAS VEGAS, NV  SUNNY     99  13   4 S9        29.83F HX  91
ELY, NY        SUNNY     82  28  14 VRB6      30.10F
ELKO, NV       SUNNY     81  29  15 W7G18     30.05F
POCATELLO, ID  MOSUNNY   80  51  36 SW18      29.96F
BURLEY, ID     SUNNY     78  44  29 W15G25    29.96S
FORT BRIDGER,  PTCLDY    79  32  18 W17G29    30.11F
EVANSTON, WY   SUNNY     75  41  29 W14G30    30.11S
ROCK SPRINGS,  SUNNY     77  35  21 W13G24    30.05S
KEMMERER, WY     N/A     73  37  27 SW20G29   30.09F

$$




USA.gov is the U.S. government's official web portal to all federal, state and local government web resources and services.